When you browse on this site, cookies collect data to enhance your experience and personalize the content and advertising you see.
Visit our Privacy Policy to learn more. By continuing to use the site, you agree to this use of cookies and data.

Tiempo cada hora Vlasova Sloboda

Hoy, 13 Julio, Lunes

Tiempo Temperatura Precipitaciones Viento Presión Humedad
00:00 +12°C° 0.1 mm 3 mps 745 mmHg 84%
01:00 +12°C° 0.1 mm 3 mps 745 mmHg 86%
02:00 +12°C° 0 mm 3 mps 745 mmHg 89%
03:00 +12°C° 0.5 mm 3 mps 744 mmHg 91%
04:00 +12°C° 0.5 mm 4 mps 744 mmHg 93%
05:00 +11°C° 0.5 mm 4 mps 744 mmHg 94%
06:00 +11°C° 0.3 mm 4 mps 744 mmHg 94%
07:00 +12°C° 0.3 mm 3 mps 744 mmHg 94%
08:00 +12°C° 0.3 mm 3 mps 744 mmHg 94%
09:00 +12°C° 0.4 mm 3 mps 743 mmHg 94%
10:00 +12°C° 0.4 mm 4 mps 743 mmHg 94%
11:00 +12°C° 0.4 mm 4 mps 743 mmHg 94%
12:00 +12°C° 0.8 mm 4 mps 743 mmHg 93%
13:00 +12°C° 0.8 mm 4 mps 743 mmHg 93%
14:00 +12°C° 0.8 mm 3 mps 743 mmHg 93%
15:00 +13°C° 0.5 mm 3 mps 743 mmHg 92%
16:00 +13°C° 0.5 mm 3 mps 743 mmHg 91%
17:00 +13°C° 0.5 mm 3 mps 742 mmHg 90%
18:00 +13°C° 0 mm 3 mps 742 mmHg 91%
19:00 +13°C° 0 mm 2 mps 742 mmHg 92%
20:00 +13°C° 0 mm 2 mps 742 mmHg 94%
21:00 +13°C° 0 mm 2 mps 742 mmHg 94%
22:00 +12°C° 0 mm 2 mps 742 mmHg 94%
23:00 +12°C° 0 mm 2 mps 742 mmHg 94%

Mañana, 14 Julio, Martes

Tiempo Temperatura Precipitaciones Viento Presión Humedad
00:00 +12°C° 0 mm 2 mps 742 mmHg 94%
01:00 +11°C° 0 mm 3 mps 742 mmHg 94%
02:00 +11°C° 0 mm 3 mps 742 mmHg 95%
03:00 +11°C° 0 mm 3 mps 742 mmHg 93%
04:00 +11°C° 0 mm 4 mps 742 mmHg 91%
05:00 +11°C° 0 mm 4 mps 741 mmHg 90%
06:00 +12°C° 0 mm 4 mps 741 mmHg 87%
07:00 +13°C° 0 mm 5 mps 742 mmHg 84%
08:00 +14°C° 0 mm 5 mps 742 mmHg 82%
09:00 +15°C° 0 mm 5 mps 742 mmHg 78%
10:00 +17°C° 0 mm 5 mps 741 mmHg 74%
11:00 +19°C° 0 mm 5 mps 741 mmHg 70%
12:00 +19°C° 0 mm 5 mps 741 mmHg 69%
13:00 +20°C° 0 mm 5 mps 741 mmHg 67%
14:00 +21°C° 0 mm 6 mps 741 mmHg 65%
15:00 +20°C° 0.1 mm 5 mps 741 mmHg 69%
16:00 +20°C° 0.1 mm 5 mps 741 mmHg 72%
17:00 +19°C° 0.1 mm 5 mps 740 mmHg 76%
18:00 +17°C° 0 mm 5 mps 740 mmHg 77%
19:00 +17°C° 0 mm 4 mps 740 mmHg 78%
20:00 +15°C° 0 mm 4 mps 740 mmHg 79%
21:00 +15°C° 0 mm 4 mps 740 mmHg 76%
22:00 +14°C° 0 mm 4 mps 739 mmHg 74%
23:00 +14°C° 0 mm 5 mps 739 mmHg 71%

Pasado mañana, 15 Julio, Miércoles

Tiempo Temperatura Precipitaciones Viento Presión Humedad
00:00 +14°C° 0 mm 5 mps 740 mmHg 71%
01:00 +13°C° 0 mm 5 mps 740 mmHg 71%
02:00 +13°C° 0 mm 5 mps 740 mmHg 72%
03:00 +13°C° 0 mm 5 mps 740 mmHg 74%
04:00 +12°C° 0 mm 5 mps 740 mmHg 77%
05:00 +12°C° 0 mm 5 mps 740 mmHg 79%
06:00 +13°C° 0 mm 5 mps 740 mmHg 78%
07:00 +13°C° 0 mm 5 mps 740 mmHg 77%
08:00 +14°C° 0 mm 5 mps 740 mmHg 76%
09:00 +15°C° 0 mm 6 mps 740 mmHg 73%
10:00 +16°C° 0 mm 6 mps 741 mmHg 70%
11:00 +17°C° 0 mm 6 mps 741 mmHg 67%
12:00 +17°C° 0.1 mm 6 mps 741 mmHg 67%
13:00 +17°C° 0.1 mm 5 mps 741 mmHg 68%
14:00 +19°C° 0.1 mm 5 mps 741 mmHg 69%
15:00 +18°C° 0.1 mm 4 mps 741 mmHg 72%
16:00 +18°C° 0.1 mm 3 mps 741 mmHg 75%
17:00 +18°C° 0.1 mm 3 mps 742 mmHg 78%
18:00 +16°C° 0 mm 2 mps 742 mmHg 80%
19:00 +15°C° 0 mm 1 mps 742 mmHg 83%
20:00 +14°C° 0 mm 1 mps 742 mmHg 85%
21:00 +14°C° 0 mm 1 mps 742 mmHg 85%
22:00 +13°C° 0 mm 2 mps 742 mmHg 84%
23:00 +12°C° 0 mm 3 mps 742 mmHg 83%

16 Julio, Jueves

Tiempo Temperatura Precipitaciones Viento Presión Humedad
00:00 +12°C° 0 mm 3 mps 742 mmHg 84%
01:00 +12°C° 0 mm 3 mps 742 mmHg 85%
02:00 +12°C° 0 mm 3 mps 742 mmHg 85%
03:00 +11°C° 0 mm 3 mps 742 mmHg 87%
04:00 +11°C° 0 mm 3 mps 742 mmHg 88%
05:00 +11°C° 0 mm 3 mps 742 mmHg 90%
06:00 +13°C° 0 mm 3 mps 742 mmHg 85%
07:00 +14°C° 0 mm 3 mps 742 mmHg 80%
08:00 +17°C° 0 mm 3 mps 742 mmHg 75%
09:00 +18°C° 0 mm 4 mps 742 mmHg 71%
10:00 +19°C° 0 mm 4 mps 742 mmHg 68%
11:00 +20°C° 0 mm 4 mps 742 mmHg 64%
12:00 +21°C° 0 mm 4 mps 742 mmHg 63%
13:00 +21°C° 0 mm 4 mps 742 mmHg 62%
14:00 +22°C° 0 mm 4 mps 742 mmHg 61%
15:00 +22°C° 0 mm 3 mps 742 mmHg 64%
16:00 +22°C° 0 mm 3 mps 742 mmHg 67%
17:00 +22°C° 0 mm 3 mps 742 mmHg 71%
18:00 +20°C° 0 mm 3 mps 742 mmHg 74%
19:00 +18°C° 0 mm 2 mps 742 mmHg 77%
20:00 +17°C° 0 mm 2 mps 742 mmHg 80%
21:00 +16°C° 0 mm 2 mps 742 mmHg 82%
22:00 +15°C° 0 mm 2 mps 742 mmHg 83%
23:00 +14°C° 0 mm 2 mps 742 mmHg 84%

17 Julio, Viernes

Tiempo Temperatura Precipitaciones Viento Presión Humedad
00:00 +14°C° 0 mm 2 mps 742 mmHg 86%
01:00 +13°C° 0 mm 1 mps 742 mmHg 88%
02:00 +13°C° 0 mm 1 mps 742 mmHg 90%
03:00 +13°C° 0 mm 1 mps 742 mmHg 90%
04:00 +13°C° 0 mm 1 mps 742 mmHg 90%
05:00 +13°C° 0 mm 1 mps 742 mmHg 90%
06:00 +15°C° 0 mm 1 mps 743 mmHg 86%
07:00 +17°C° 0 mm 2 mps 743 mmHg 81%
08:00 +18°C° 0 mm 2 mps 743 mmHg 76%
09:00 +20°C° 0 mm 2 mps 743 mmHg 72%
10:00 +21°C° 0 mm 2 mps 743 mmHg 67%
11:00 +23°C° 0 mm 2 mps 743 mmHg 63%
12:00 +23°C° 0 mm 2 mps 743 mmHg 62%
13:00 +24°C° 0 mm 2 mps 743 mmHg 61%
14:00 +24°C° 0 mm 2 mps 743 mmHg 60%
15:00 +24°C° 0.1 mm 2 mps 743 mmHg 63%
16:00 +24°C° 0.1 mm 2 mps 743 mmHg 67%
17:00 +23°C° 0.1 mm 2 mps 743 mmHg 70%
18:00 +21°C° 0 mm 2 mps 743 mmHg 73%
19:00 +19°C° 0 mm 2 mps 743 mmHg 77%
20:00 +19°C° 0 mm 1 mps 744 mmHg 81%
21:00 +18°C° 0 mm 1 mps 744 mmHg 83%
22:00 +16°C° 0 mm 1 mps 744 mmHg 85%
23:00 +15°C° 0 mm 1 mps 744 mmHg 87%

18 Julio, Sábado

Tiempo Temperatura Precipitaciones Viento Presión Humedad
00:00 +14°C° 0 mm 1 mps 744 mmHg 87%
01:00 +14°C° 0 mm 1 mps 744 mmHg 87%
02:00 +13°C° 0 mm 0 mps 745 mmHg 87%
03:00 +14°C° 0 mm 1 mps 745 mmHg 88%
04:00 +14°C° 0 mm 1 mps 745 mmHg 88%
05:00 +14°C° 0 mm 2 mps 745 mmHg 89%
06:00 +15°C° 0 mm 2 mps 745 mmHg 84%
07:00 +17°C° 0 mm 2 mps 745 mmHg 80%
08:00 +18°C° 0 mm 2 mps 745 mmHg 76%
09:00 +19°C° 0 mm 2 mps 745 mmHg 70%
10:00 +20°C° 0 mm 2 mps 746 mmHg 65%
11:00 +23°C° 0 mm 2 mps 746 mmHg 59%
12:00 +23°C° 0 mm 2 mps 746 mmHg 58%
13:00 +24°C° 0 mm 2 mps 746 mmHg 56%
14:00 +24°C° 0 mm 2 mps 746 mmHg 55%
15:00 +24°C° 0 mm 2 mps 746 mmHg 59%
16:00 +22°C° 0 mm 3 mps 746 mmHg 63%
17:00 +22°C° 0 mm 3 mps 746 mmHg 67%
18:00 +20°C° 0 mm 3 mps 746 mmHg 71%
19:00 +18°C° 0 mm 2 mps 746 mmHg 75%
20:00 +16°C° 0 mm 2 mps 746 mmHg 78%
21:00 +15°C° 0 mm 2 mps 746 mmHg 81%
22:00 +14°C° 0 mm 2 mps 746 mmHg 83%
23:00 +13°C° 0 mm 2 mps 747 mmHg 86%
Mostrar más